Voltar ao catálogo

STARLINK-33828

AtivoComunicaçõesVLEO
NORAD 63493·PAYLOAD·🇺🇸 United States

Lançado Apr 7, 2025 de Vandenberg Space Force Base

Loading…

Próximas Passagens (próximas 24 horas)

TLE

AtualizadoSource: CelesTrak SupGP

Época: Sep 15, 2026, 03:39 UTC

1 63493C 25071A   26258.15256944  .00058822  00000+0  17377-2 0  2588
2 63493  53.1593 335.0492 0001103  97.7288 343.5246 15.34365864    18

Acompanhe STARLINK-33828 em tempo real com AllMySat

Download on the App Store